Temp
23 23 22 23 25 27 29 28 31 31 31 30 29 29 29 29 28 25 23 23 23 22 21 21 20 20 19 18 17 17 16 15 15 14 14 13 13 14 14 14 14 14 14 13 12 12 13 15 15
23 21 22 25 25 27 29 30 31 31 31 29 29 29 29 29 27 26 24 23 22 21 20 20 19 19 18 18 17 16 16 15 15 14 14 13 13 13 13 14 13 13 13 12 11 11 12 14 15
22 22 25 27 28 28 29 30 31 31 30 29 29 29 28 26 25 25 23 23 22 21 20 19 19 19 18 18 17 16 16 15 15 14 14 13 13 13 13 13 13 13 13 12 11 11 12 13 14
22 24 25 27 29 31 30 31 31 31 30 30 29 29 27 25 25 24 23 22 22 22 21 20 19 18 18 17 17 16 15 15 14 14 14 13 13 12 13 13 13 13 12 12 11 11 13 13 13
23 25 27 28 29 29 30 31 30 30 30 31 29 29 27 24 24 23 22 22 21 21 20 19 19 18 17 17 16 16 15 14 14 14 14 13 13 13 12 12 12 12 12 12 11 12 13 13 13
25 27 27 28 30 30 31 31 30 30 30 30 30 29 26 24 23 23 22 21 21 20 20 18 17 17 16 16 15 15 15 14 14 13 13 13 13 13 13 12 12 12 11 12 11 11 13 13 13
25 27 27 29 29 30 31 30 30 30 30 30 28 28 27 24 23 23 22 21 20 19 18 18 16 16 16 15 14 14 14 13 13 13 13 13 12 13 13 13 12 12 12 12 12 11 13 13 13
26 28 27 28 29 29 31 30 30 30 29 28 28 28 27 25 23 22 21 21 20 19 19 18 17 17 16 15 14 13 13 13 13 13 13 13 13 13 12 12 11 12 12 12 12 11 12 13 13
26 26 26 28 29 30 31 31 30 30 29 28 28 27 26 24 23 22 22 22 21 21 20 19 18 17 15 14 14 13 12 11 11 11 11 11 11 10 11 11 11 11 12 12 12 12 12 13 13
27 26 27 29 30 30 30 30 29 29 29 29 28 27 25 24 23 23 23 22 22 21 20 19 17 16 15 14 13 13 12 11 11 11 12 12 10 10 10 11 11 12 12 12 11 12 12 12 13
27 27 28 29 29 29 29 29 29 30 29 29 28 28 25 24 23 23 23 23 22 20 19 18 17 16 15 14 13 13 12 12 12 12 11 11 11 11 10 11 11 11 11 11 11 12 12 12 13
27 28 29 29 29 28 29 29 29 29 29 29 28 27 26 24 24 23 23 23 21 20 18 17 15 14 14 13 12 12 12 12 12 11 11 10 10 11 10 11 11 11 11 11 11 11 12 12 12
28 29 29 29 28 28 28 29 29 29 29 28 28 27 26 25 24 23 22 22 20 18 18 16 15 14 14 13 12 12 12 12 11 11 11 11 11 11 11 11 11 11 11 11 11 12 12 12 13
28 29 29 28 28 29 29 29 29 29 28 28 27 27 26 26 25 23 22 21 19 18 17 16 14 14 13 13 12 12 12 12 11 11 10 12 11 11 11 10 11 10 10 11 11 12 12 12 13
28 28 29 29 29 29 29 28 28 28 28 28 27 27 26 25 24 23 22 19 18 17 16 15 15 14 13 13 12 12 12 12 12 12 11 11 12 11 11 11 10 11 11 11 11 12 12 12 13
27 27 27 29 29 29 29 26 29 28 29 28 28 27 26 25 25 23 21 19 18 17 16 15 15 14 13 13 13 13 12 12 12 12 11 11 11 11 11 11 11 10 10 11 11 12 12 13 13
26 26 26 28 30 30 30 27 29 28 29 28 28 27 27 26 24 22 21 19 17 16 16 15 15 14 14 14 14 13 12 13 12 11 11 11 11 11 11 11 11 11 11 11 12 12 12 13 13
25 26 27 27 29 30 29 28 29 29 29 29 28 28 27 26 24 22 20 18 17 16 15 15 14 14 14 14 14 13 13 14 13 12 11 11 11 11 11 11 11 11 11 11 11 12 12 13 13
27 27 28 29 31 28 28 28 29 29 29 29 28 28 27 26 24 21 19 18 17 16 15 15 15 14 14 14 14 13 13 13 12 12 11 11 11 11 11 11 11 11 12 12 12 12 13 13 13
26 27 27 29 30 30 29 29 29 29 29 28 28 28 28 25 23 21 19 18 17 16 15 15 14 14 15 14 14 14 13 13 12 12 12 11 10 11 11 11 12 12 12 12 12 13 12 12 12
27 26 27 28 29 29 29 27 28 29 29 29 29 28 27 24 23 21 19 17 16 16 16 15 15 14 15 15 14 14 13 13 13 12 12 12 11 11 11 12 12 12 12 13 12 12 12 12 12
26 28 28 28 27 26 28 25 27 28 29 30 29 28 27 24 23 21 19 17 17 16 16 15 15 14 14 15 14 14 13 13 13 13 12 12 11 11 11 12 11 12 12 13 12 12 13 12 13
28 29 29 28 27 26 26 25 27 29 28 29 29 28 27 25 23 21 19 17 17 17 16 15 15 14 14 14 14 13 13 13 13 12 12 12 12 11 11 11 12 12 12 12 13 13 12 13 13
30 29 28 28 27 24 26 25 26 28 29 29 29 29 27 25 23 21 19 18 17 17 16 15 15 15 14 14 14 13 13 13 13 12 12 12 11 11 11 11 12 12 12 12 13 13 13 13 14
29 27 25 23 23 23 26 26 27 29 29 29 29 28 26 24 22 20 19 18 17 17 16 15 15 15 14 15 14 13 13 13 13 13 12 12 11 12 11 12 12 12 12 13 13 13 13 13 14
28 27 25 22 23 24 28 26 27 29 29 29 28 28 25 24 22 20 19 18 18 17 16 16 16 15 15 15 14 14 13 13 13 13 12 12 12 12 11 12 12 13 13 13 13 13 13 13 13
28 26 28 26 27 26 27 28 29 29 29 29 28 27 24 23 21 20 19 19 18 17 16 16 16 16 15 15 14 14 13 13 13 13 13 12 12 12 11 12 12 12 13 13 13 13 12 12 13
29 29 25 26 23 22 25 27 27 27 28 28 28 26 24 23 21 20 19 19 18 17 16 16 16 16 15 15 14 14 14 13 13 13 13 13 12 12 12 12 12 12 13 13 13 12 12 13 13
27 28 27 26 26 24 23 26 29 28 28 27 27 26 23 22 21 20 20 19 18 17 16 16 16 16 15 15 15 15 14 14 13 13 13 13 13 12 12 12 12 13 13 12 13 13 13 13 13
28 27 27 25 24 26 26 26 29 29 29 28 26 25 23 22 22 21 20 19 18 17 17 16 16 16 16 15 15 14 14 14 13 13 14 14 13 13 12 12 13 13 13 13 13 13 13 13 13
Height
1514 1515 1517 1519 1519 1499 1488 1490 1476 1473 1475 1480 1485 1489 1491 1490 1491 1507 1508 1509 1511 1508 1509 1509 1510 1510 1511 1511 1512 1511 1512 1512 1512 1511 1511 1510 1512 1513 1513 1513 1513 1512 1512 1513 1515 1515 1516 1517 1517
1515 1516 1518 1515 1514 1502 1485 1478 1477 1475 1478 1483 1487 1489 1489 1492 1496 1502 1506 1509 1510 1509 1508 1508 1508 1510 1510 1509 1509 1508 1508 1508 1509 1509 1509 1507 1508 1508 1508 1509 1510 1510 1510 1510 1511 1512 1513 1514 1515
1515 1518 1518 1506 1498 1495 1488 1478 1475 1476 1478 1483 1486 1486 1488 1497 1500 1504 1506 1508 1509 1508 1507 1505 1506 1507 1507 1506 1506 1505 1505 1505 1505 1505 1504 1504 1505 1505 1505 1505 1506 1506 1506 1507 1508 1509 1510 1511 1512
1515 1518 1515 1504 1491 1475 1477 1473 1476 1479 1479 1479 1483 1488 1492 1495 1497 1501 1505 1506 1507 1508 1506 1504 1504 1503 1504 1503 1502 1502 1502 1501 1501 1500 1500 1500 1501 1501 1501 1501 1502 1502 1503 1503 1505 1506 1507 1508 1510
1516 1514 1506 1498 1486 1481 1482 1475 1477 1480 1479 1477 1480 1486 1489 1497 1496 1497 1501 1504 1505 1506 1505 1502 1501 1501 1500 1499 1498 1498 1497 1496 1496 1496 1495 1495 1495 1495 1496 1496 1497 1498 1498 1499 1500 1502 1503 1505 1507
1513 1508 1508 1498 1478 1475 1474 1474 1479 1478 1478 1477 1479 1482 1490 1493 1495 1497 1498 1501 1502 1501 1501 1501 1499 1498 1497 1495 1494 1494 1493 1493 1492 1491 1490 1489 1489 1490 1490 1489 1490 1491 1492 1494 1496 1497 1499 1502 1503
1510 1504 1500 1491 1485 1477 1473 1474 1478 1478 1479 1480 1482 1485 1489 1491 1494 1495 1496 1497 1498 1499 1499 1499 1497 1495 1493 1490 1489 1489 1489 1488 1487 1485 1484 1483 1482 1482 1482 1482 1483 1484 1486 1488 1491 1493 1495 1498 1500
1507 1502 1500 1491 1487 1479 1468 1475 1475 1475 1478 1480 1482 1484 1487 1490 1491 1492 1495 1494 1495 1496 1498 1497 1495 1496 1493 1488 1487 1486 1485 1484 1481 1480 1478 1476 1475 1475 1476 1476 1477 1478 1481 1483 1486 1489 1492 1494 1497
1504 1503 1499 1490 1481 1473 1471 1470 1470 1472 1474 1478 1479 1482 1486 1487 1489 1490 1494 1495 1495 1495 1495 1494 1494 1492 1490 1489 1487 1484 1482 1479 1477 1476 1474 1471 1471 1472 1472 1473 1473 1474 1476 1478 1481 1485 1488 1491 1494
1498 1497 1490 1482 1474 1473 1472 1473 1474 1473 1470 1470 1473 1477 1480 1483 1486 1489 1491 1491 1491 1492 1492 1492 1490 1487 1486 1485 1485 1482 1480 1477 1475 1473 1471 1469 1469 1469 1470 1469 1469 1470 1472 1474 1478 1481 1485 1487 1491
1490 1488 1483 1480 1477 1475 1474 1473 1473 1468 1468 1468 1472 1474 1476 1480 1483 1485 1487 1488 1487 1488 1489 1488 1487 1484 1482 1482 1480 1479 1477 1474 1472 1470 1468 1467 1466 1466 1466 1466 1466 1467 1468 1471 1474 1478 1482 1484 1488
1486 1478 1476 1475 1475 1475 1474 1471 1469 1467 1467 1468 1469 1472 1474 1475 1478 1483 1484 1485 1484 1486 1486 1486 1484 1481 1479 1478 1477 1477 1476 1471 1470 1468 1467 1466 1465 1464 1464 1464 1464 1464 1465 1468 1471 1475 1479 1483 1486
1477 1472 1470 1470 1473 1475 1469 1466 1465 1464 1465 1466 1468 1470 1472 1473 1474 1478 1480 1482 1482 1483 1484 1483 1481 1478 1476 1475 1474 1474 1471 1469 1468 1467 1466 1464 1463 1462 1462 1461 1462 1462 1464 1466 1469 1473 1477 1480 1484
1470 1467 1465 1468 1469 1465 1462 1460 1463 1462 1464 1465 1467 1469 1470 1470 1471 1473 1476 1479 1480 1481 1481 1480 1478 1476 1474 1473 1472 1470 1469 1466 1466 1465 1463 1462 1460 1460 1459 1459 1458 1460 1462 1463 1467 1471 1475 1478 1482
1466 1465 1461 1459 1459 1458 1459 1457 1457 1460 1460 1463 1462 1464 1466 1468 1470 1470 1472 1475 1478 1479 1479 1477 1476 1474 1473 1472 1470 1468 1466 1464 1463 1463 1461 1459 1458 1457 1457 1456 1456 1456 1458 1461 1464 1468 1472 1475 1479
1464 1462 1463 1452 1451 1449 1452 1460 1452 1455 1454 1457 1456 1458 1460 1463 1465 1467 1469 1472 1474 1476 1477 1476 1475 1474 1473 1471 1470 1467 1464 1462 1460 1459 1457 1456 1456 1455 1455 1455 1454 1453 1454 1458 1462 1466 1470 1473 1477
1460 1465 1459 1449 1441 1438 1438 1449 1448 1450 1449 1448 1450 1451 1453 1456 1460 1464 1467 1469 1472 1474 1474 1474 1473 1472 1471 1469 1467 1466 1463 1460 1458 1456 1455 1453 1453 1453 1453 1453 1453 1452 1453 1456 1461 1465 1470 1472 1476
1462 1455 1450 1448 1434 1428 1435 1440 1440 1442 1442 1443 1443 1443 1444 1449 1453 1459 1465 1468 1470 1472 1472 1471 1471 1470 1469 1468 1466 1463 1462 1459 1457 1454 1453 1451 1450 1451 1451 1452 1452 1452 1453 1457 1460 1464 1468 1472 1475
1447 1443 1440 1428 1420 1436 1436 1435 1433 1434 1437 1436 1436 1436 1439 1443 1448 1454 1461 1467 1469 1470 1470 1470 1470 1469 1468 1466 1466 1464 1460 1457 1455 1454 1452 1449 1448 1449 1450 1450 1451 1452 1453 1456 1459 1463 1468 1472 1476
1444 1443 1438 1427 1421 1425 1426 1428 1427 1430 1430 1431 1430 1431 1433 1438 1445 1451 1458 1464 1467 1468 1469 1469 1469 1469 1467 1466 1464 1462 1459 1457 1455 1454 1452 1449 1446 1447 1449 1450 1451 1453 1454 1457 1459 1463 1467 1470 1475
1438 1439 1437 1434 1425 1422 1425 1431 1428 1423 1420 1420 1422 1425 1430 1436 1444 1449 1455 1461 1465 1467 1467 1468 1468 1468 1466 1466 1464 1462 1459 1456 1455 1453 1451 1448 1446 1447 1448 1450 1452 1454 1456 1458 1461 1464 1468 1471 1474
1435 1424 1424 1427 1435 1446 1424 1446 1426 1420 1416 1412 1416 1420 1426 1432 1439 1446 1452 1458 1462 1465 1466 1467 1467 1467 1466 1465 1464 1461 1459 1456 1454 1453 1451 1448 1447 1448 1449 1451 1454 1456 1458 1461 1464 1466 1469 1473 1476
1420 1413 1416 1422 1432 1435 1438 1444 1428 1414 1413 1408 1412 1416 1420 1427 1434 1442 1449 1455 1461 1464 1465 1465 1466 1466 1466 1465 1464 1462 1460 1457 1454 1453 1452 1450 1447 1448 1450 1452 1455 1458 1460 1462 1466 1469 1471 1475 1475
1407 1412 1416 1421 1428 1446 1434 1438 1432 1418 1409 1408 1410 1412 1418 1426 1434 1441 1449 1454 1459 1462 1463 1465 1466 1466 1467 1467 1465 1464 1461 1458 1454 1453 1453 1452 1450 1449 1450 1453 1456 1459 1460 1462 1464 1470 1473 1476 1475
1403 1415 1440 1454 1452 1449 1424 1429 1417 1402 1403 1405 1409 1413 1418 1426 1433 1440 1447 1452 1457 1460 1462 1464 1466 1466 1467 1467 1466 1465 1462 1458 1457 1456 1455 1453 1452 1451 1452 1454 1457 1459 1462 1463 1465 1467 1470 1474 1476
1398 1413 1431 1457 1452 1437 1404 1422 1410 1398 1401 1406 1411 1415 1420 1426 1433 1440 1446 1451 1456 1459 1461 1463 1465 1466 1467 1467 1467 1466 1464 1462 1460 1458 1456 1454 1454 1453 1454 1456 1457 1459 1462 1465 1468 1472 1473 1474 1477
1396 1410 1405 1421 1412 1421 1411 1403 1395 1392 1399 1404 1408 1414 1421 1428 1434 1440 1446 1451 1454 1458 1460 1462 1464 1466 1467 1467 1467 1467 1465 1464 1462 1461 1459 1457 1455 1455 1457 1457 1458 1460 1464 1468 1472 1474 1476 1477 1480
1383 1391 1419 1417 1443 1447 1422 1411 1406 1400 1399 1400 1407 1415 1421 1428 1435 1440 1445 1450 1453 1457 1460 1462 1464 1465 1467 1467 1468 1468 1467 1466 1465 1463 1461 1459 1458 1459 1459 1459 1461 1463 1466 1469 1472 1475 1479 1482 1486
1386 1389 1396 1405 1411 1431 1437 1416 1382 1390 1395 1402 1406 1413 1421 1427 1434 1439 1444 1449 1453 1456 1459 1461 1463 1465 1466 1467 1468 1469 1469 1469 1468 1466 1464 1462 1462 1463 1463 1464 1464 1467 1469 1473 1475 1479 1483 1486 1489
1372 1382 1388 1409 1418 1406 1407 1409 1383 1389 1394 1399 1406 1413 1421 1426 1433 1438 1443 1447 1451 1455 1458 1460 1462 1464 1465 1467 1468 1469 1470 1471 1469 1469 1468 1466 1465 1465 1466 1468 1469 1471 1473 1477 1480 1482 1486 1489 1492
Wind_Speed
11 10 6 9 6 8 14 10 12 8 12 14 8 7 10 11 10 4 10 6 4 2 5 10 10 8 9 12 12 12 14 15 17 16 17 18 19 16 15 16 15 15 16 14 13 12 12 12 13
12 6 7 10 11 14 2 11 6 10 11 11 6 6 6 6 12 9 12 6 4 1 4 6 9 11 12 14 14 14 16 18 18 17 19 19 19 19 18 18 16 15 15 14 14 14 14 13 13
13 8 13 8 14 14 5 6 10 12 5 1 11 2 2 8 8 5 6 2 2 3 10 11 11 14 18 18 16 16 18 20 21 22 22 20 20 21 21 21 20 19 18 16 14 14 14 13 14
5 10 14 10 17 8 9 7 8 10 14 5 3 5 7 7 9 7 2 3 4 4 4 10 11 15 19 18 19 21 21 23 24 24 23 22 23 23 23 23 22 21 21 18 14 15 16 15 15
9 12 12 18 18 6 17 12 7 8 10 12 7 4 4 9 9 9 5 4 5 5 7 8 14 17 17 17 20 23 23 24 25 25 26 26 25 25 25 24 23 24 22 22 18 18 17 18 17
12 17 13 15 18 9 9 5 5 10 13 6 5 2 7 12 9 7 6 5 6 10 11 8 11 14 16 16 15 18 21 24 25 26 26 27 28 29 30 30 29 25 24 24 21 19 20 18 19
15 12 17 20 20 20 18 4 5 12 10 9 10 6 1 12 8 7 7 9 6 4 6 7 7 16 15 14 16 17 17 21 24 26 28 30 31 29 28 29 28 23 22 23 22 19 20 21 20
21 12 21 18 18 17 9 6 10 12 7 7 3 3 4 9 9 3 7 6 4 8 4 7 10 8 11 14 14 19 21 25 23 22 25 24 24 22 16 17 20 20 22 22 23 21 18 20 20
21 14 16 21 22 15 17 14 12 13 8 16 8 5 4 7 7 6 8 9 7 7 10 9 7 12 15 11 14 16 19 20 22 13 16 18 16 11 11 13 18 15 18 21 21 19 17 18 21
20 14 24 22 20 15 20 16 21 20 16 15 14 13 12 11 10 11 12 10 14 9 7 10 13 16 20 10 11 15 14 19 22 21 14 14 11 13 12 14 17 15 18 19 21 19 17 18 21
26 20 22 27 25 21 22 20 21 20 11 11 7 3 17 13 14 14 13 12 7 3 4 9 15 18 17 12 14 14 11 20 21 12 12 12 10 8 9 11 14 15 16 21 21 20 18 18 21
24 32 30 31 23 23 19 29 22 16 13 13 5 5 11 16 16 15 14 10 7 7 6 6 8 14 16 15 12 9 13 20 14 10 16 14 9 7 10 13 13 15 14 20 20 19 17 14 16
27 25 32 24 18 29 31 26 20 16 14 9 7 10 11 12 15 16 14 9 9 5 7 8 12 13 14 12 10 12 17 15 9 9 12 15 11 13 13 11 11 15 14 17 18 18 18 12 18
29 30 26 23 32 31 24 20 20 26 13 6 9 11 15 15 15 15 14 13 9 8 6 8 8 11 9 10 13 15 16 14 13 9 12 14 11 12 12 12 13 16 16 19 17 19 19 18 19
29 25 23 24 24 23 25 20 16 25 16 21 15 17 15 13 14 18 18 14 12 10 7 8 9 9 11 12 14 16 15 16 14 13 16 16 14 12 11 9 10 13 20 19 22 22 17 19 23
23 26 21 22 22 29 25 19 16 22 20 22 19 16 19 19 16 15 14 15 14 11 8 8 5 7 8 12 13 14 13 15 15 14 14 16 15 13 10 9 10 9 18 21 21 22 18 17 19
20 18 25 23 22 23 22 18 17 22 20 20 16 17 17 15 14 14 15 15 14 10 8 6 7 5 9 9 13 14 11 16 13 14 11 11 13 12 10 8 6 7 13 21 20 22 16 18 19
20 23 21 22 22 21 14 18 16 23 24 16 25 22 18 16 19 19 18 14 13 10 8 6 3 6 8 7 13 11 12 12 12 12 10 10 9 11 11 8 7 7 12 18 22 20 19 21 22
24 23 24 22 16 9 15 21 18 15 19 23 23 16 14 16 18 21 20 16 14 10 8 6 5 5 7 7 10 10 10 6 9 11 10 7 9 12 9 8 8 9 11 17 17 23 21 18 19
27 25 23 20 18 14 14 15 13 15 19 26 24 20 15 18 21 21 20 19 16 12 8 8 4 5 5 3 8 13 11 8 8 9 10 7 4 9 10 9 10 11 11 13 16 23 22 21 22
25 24 20 22 17 16 15 14 14 21 22 18 17 9 8 20 22 23 21 20 16 12 11 7 6 5 3 2 6 9 12 11 6 6 9 8 1 7 9 11 10 9 10 14 15 17 18 18 22
24 25 24 17 14 12 14 13 13 15 16 11 6 12 15 22 23 24 23 21 17 13 10 9 6 3 4 2 3 11 13 13 6 4 9 7 3 6 7 15 11 13 10 10 14 12 11 16 22
23 23 18 13 15 14 15 12 14 14 17 7 1 8 20 24 26 26 24 21 17 13 12 9 6 4 3 5 8 7 11 13 10 3 7 5 5 4 10 15 14 15 9 10 12 14 17 16 19
24 20 11 12 12 12 15 15 14 15 4 4 1 6 19 21 23 24 22 20 17 14 12 9 7 5 3 1 6 9 13 14 9 4 4 9 6 3 9 16 18 13 12 14 12 13 17 17 18
23 12 11 10 11 11 17 15 15 9 10 1 2 5 18 20 22 24 23 21 18 14 13 9 7 5 3 2 3 6 10 9 12 9 7 8 11 7 10 14 16 16 13 14 15 14 16 18 20
21 17 11 11 11 16 20 16 3 5 6 2 1 4 15 18 22 23 23 21 18 14 13 10 8 6 3 1 1 5 5 9 12 12 9 8 9 8 12 11 12 13 13 17 16 17 19 19 25
19 21 18 17 15 12 8 10 13 12 7 9 11 11 17 16 21 22 22 20 17 15 13 10 7 6 4 2 1 3 5 6 9 10 12 13 10 13 11 13 11 15 16 17 20 22 26 24 26
22 19 16 12 15 13 11 14 4 11 6 10 8 8 17 17 20 22 22 20 16 15 13 11 9 7 5 2 1 3 2 8 9 9 9 11 12 16 14 16 17 18 20 23 24 24 25 24 22
19 18 16 14 14 11 9 9 3 11 9 9 8 14 17 20 22 22 21 19 16 15 14 13 10 7 7 4 3 5 3 6 4 8 9 10 13 12 13 17 19 21 21 23 23 24 25 22 23
23 23 17 10 15 10 10 3 11 8 8 7 14 16 19 24 23 21 21 19 17 16 15 13 11 9 8 6 5 6 6 6 4 10 13 14 11 12 13 17 19 21 21 20 19 19 20 20 19
Wind_Direction
162 152 139 234 255 232 261 1 233 326 57 50 6 344 336 311 26 57 132 133 96 130 230 265 295 289 307 310 301 297 291 289 290 297 292 292 288 290 294 294 292 292 280 271 259 254 250 256 252
162 177 244 265 248 279 287 280 326 4 24 17 314 273 286 38 58 99 132 120 111 241 254 283 289 287 299 304 295 290 283 285 285 280 283 287 288 290 291 294 284 286 280 269 261 253 252 252 253
181 218 273 239 248 267 342 281 352 355 341 146 300 200 324 87 73 75 112 103 203 222 266 249 259 289 295 299 288 282 276 279 280 281 281 282 278 277 277 278 278 280 275 273 252 250 246 249 252
171 227 252 253 263 297 299 356 347 357 320 172 221 337 116 128 124 128 166 186 233 280 262 272 282 287 291 292 277 271 273 270 275 280 281 279 278 276 275 275 270 271 268 262 245 243 234 235 238
232 266 259 261 267 345 273 318 8 318 308 328 107 302 47 130 130 142 148 198 226 245 259 278 281 288 284 285 274 267 267 269 279 281 281 281 280 278 276 273 270 272 265 256 249 234 230 228 232
222 230 264 273 308 187 258 4 353 309 299 316 258 251 88 158 135 148 161 210 215 224 239 259 272 290 291 293 290 278 274 275 278 277 279 281 280 278 276 274 272 267 260 251 244 236 228 229 235
249 264 265 278 300 299 317 25 286 296 326 331 6 5 170 161 156 168 187 201 217 222 250 272 271 301 317 311 309 300 293 288 284 280 280 281 282 280 276 272 269 264 250 245 236 240 232 228 235
238 261 274 274 271 285 324 245 248 288 256 330 314 308 7 137 180 227 188 207 214 249 222 243 302 300 302 305 297 298 300 300 293 287 283 283 284 290 285 278 268 258 243 240 232 232 235 230 235
241 253 258 269 282 304 300 311 321 302 214 269 237 213 178 167 203 194 216 222 237 224 272 301 275 264 274 274 288 292 298 304 307 306 290 289 297 292 264 275 275 257 242 239 229 226 221 224 227
234 245 256 267 284 309 311 307 295 301 257 235 210 201 205 182 195 217 220 225 238 232 255 276 271 264 289 295 282 276 288 276 294 302 292 294 285 277 261 247 253 249 237 228 216 218 219 221 222
237 246 254 269 290 300 297 296 285 278 290 276 1 330 179 188 209 222 233 239 200 214 263 259 275 289 301 291 273 298 306 285 302 311 307 293 292 309 262 271 255 247 243 221 215 218 218 223 218
250 250 253 257 273 297 276 276 272 282 284 276 280 273 193 204 216 224 233 244 249 231 253 268 280 276 299 291 282 282 275 279 304 304 314 305 288 294 269 255 257 243 231 220 209 214 218 226 191
252 256 257 272 281 265 262 260 280 274 275 285 277 243 234 229 213 225 223 232 212 229 237 275 272 296 298 311 296 275 285 297 304 300 292 300 290 272 267 265 250 232 236 224 208 204 201 208 191
254 258 264 263 254 259 266 263 261 265 255 255 263 260 248 233 220 210 215 214 226 237 260 266 292 292 308 311 330 318 314 291 288 278 262 279 289 275 271 271 251 229 217 227 207 197 192 196 203
261 263 266 255 254 257 270 260 245 273 238 268 252 243 244 261 233 222 208 207 219 234 249 270 309 315 311 323 314 317 309 303 293 273 259 268 277 273 279 273 266 237 219 222 210 200 192 200 209
254 260 257 259 252 251 237 252 260 250 246 264 248 253 249 235 232 206 204 211 219 218 233 257 255 262 287 296 310 319 320 315 296 288 273 267 269 270 268 270 263 253 212 206 201 196 200 201 206
248 252 253 258 247 251 233 236 238 261 280 250 240 250 256 235 201 199 200 207 214 223 224 242 252 276 275 314 348 321 302 321 318 300 297 273 258 256 254 263 258 213 193 194 192 182 191 186 178
235 240 238 252 259 260 218 241 242 238 250 259 269 250 250 228 191 196 198 207 213 214 231 245 273 269 291 356 347 337 311 324 334 324 313 290 249 243 242 249 227 192 183 181 177 178 189 179 176
244 251 246 253 258 220 236 238 242 256 276 285 291 283 255 203 187 190 196 201 209 211 224 233 249 277 304 14 330 317 327 338 337 333 328 306 260 231 226 229 207 182 179 181 179 179 179 179 175
243 252 261 273 283 286 284 264 279 286 271 265 265 266 263 172 165 180 192 198 207 214 211 221 237 263 300 319 306 343 333 324 305 323 344 328 277 202 213 205 181 177 175 178 176 175 175 183 173
234 243 254 261 273 270 277 270 264 263 269 267 260 235 250 157 173 182 187 197 204 205 208 202 220 249 326 49 347 316 323 331 329 342 327 353 214 196 194 168 156 160 170 175 167 173 178 165 173
232 232 239 254 274 270 281 289 279 294 272 257 240 213 180 166 182 182 186 195 200 203 202 195 210 234 315 297 345 335 343 352 324 330 5 21 94 173 174 166 167 157 132 165 155 147 147 158 169
233 239 242 236 247 259 268 269 276 289 281 233 169 228 185 172 179 179 184 190 195 197 193 190 211 233 242 353 358 15 355 353 352 334 19 57 81 154 184 165 166 161 153 174 159 151 157 156 166
233 237 247 257 260 249 250 259 270 266 320 101 298 235 149 165 172 175 181 185 188 191 192 191 202 225 222 312 349 357 344 356 10 68 65 52 54 125 165 168 160 172 180 177 176 154 156 149 149
224 213 224 225 237 252 250 246 245 280 297 330 313 133 153 159 164 169 176 178 184 186 188 189 204 214 212 258 342 12 357 25 57 86 67 63 55 103 143 167 174 185 178 171 178 159 150 149 145
198 208 219 226 223 245 236 242 261 98 92 79 83 78 130 155 162 171 177 177 181 184 188 188 194 207 185 230 354 28 349 32 70 71 60 62 63 98 132 144 159 178 177 173 163 147 145 145 139
194 212 215 250 251 284 281 220 216 171 166 198 197 146 138 157 163 171 174 179 180 184 187 185 196 197 193 214 122 67 358 46 67 59 62 50 83 107 121 134 153 153 154 152 152 146 141 140 142
219 192 208 232 244 266 279 277 224 138 199 150 127 145 140 158 166 172 174 178 180 184 185 185 192 196 192 176 115 98 49 64 48 56 64 62 92 112 105 127 130 144 147 147 149 152 150 138 128
205 222 199 225 225 226 243 257 276 149 128 121 155 142 152 163 171 172 176 177 182 183 185 186 189 188 189 174 166 119 106 96 77 67 75 82 102 112 99 117 127 138 142 146 152 157 153 148 143
206 216 192 214 219 253 253 242 98 110 137 135 115 142 160 165 174 175 176 177 184 183 186 185 189 188 190 180 162 142 128 111 91 90 87 78 105 122 121 122 125 137 142 147 151 154 156 168 167